www.pogodaiklimat.ru

Погода и климат >> Архив погоды >> Пакистан >> Bahawalpur


ПОГОДА в Bahawalpur

  • Прогноз погоды в Bahawalpur
  • Монитор погоды в Bahawalpur
  • Климат города

АРХИВ ПОГОДЫ в Bahawalpur

Время (UTC), дата Ветер
(напр.,м/с)
 
Видим.   Явления Облачность Т
(С)
Тd
(С)
f
(%)
Тe
(С)
Тes
(С)
Комфортность P
(гПа)
Po
(гПа)
Тmin
(С)
Tmax
(С)
R
(мм)
R24
(мм)
S
(см)
06 12.12 СВ 1 2000 м дым {туман} ясно +15.5 +11.8 79 +17 +26 1019.7 1000.0
09 12.12 С 1 4000 м дым ясно +19.5 +10.3 55 +22 +29 комфорт 1017.1 1000.0
12 12.12 СВ 1 4000 м дым ясно +18.5 +10.1 58 +21 +21 комфорт 1017.1 1004.3 +20.1
15 12.12 штиль 0 2000 м дым ясно +14.5 +10.7 78 +14 +14 1018.5 1000.0
18 12.12 штиль 0 1000 м дымка ясно +12.0 +10.1 88 +11 +11 1019.8 1000.0
21 12.12 штиль 0 1000 м дымка ясно +10.5 +8.5 87 +10 +10 1019.2 1000.0
00 13.12 штиль 0 500 м туман на расстоянии ясно +8.5 +7.4 93 +8 +8 1020.4 1007.0
03 13.12 штиль 0 500 м туман ясно +6.5 +5.4 93 +5 +6 1022.3 1008.7 +6.1
06 13.12 штиль 0 1000 м дым {туман} ясно +16.0 +11.4 74 +16 +25 1023.2 1000.0
09 13.12 СВ 1 2000 м дым ясно +20.0 +10.9 56 +23 +31 комфорт 1021.0 1000.0
12 13.12 СВ 1 2000 м дым ясно +18.5 +11.2 62 +21 +21 комфорт 1020.8 1007.9 +20.1
15 13.12 штиль 0 1000 м дымка ясно +14.5 +11.7 83 +14 +14 1021.8 1000.0
18 13.12 штиль 0 500 м туман на расстоянии ясно +11.5 +10.5 94 +11 +11 1022.9 1000.0
21 13.12 штиль 0 500 м туман ясно +10.0 +9.0 93 +9 +9 1022.3 1000.0
00 14.12 штиль 0 500 м туман ясно +8.0 +6.9 93 +7 +7 1022.6 1009.1
03 14.12 штиль 0 200 м туман ясно +6.0 +6.0 100 +5 +6 1024.8 1011.2 +5.7
06 14.12 штиль 0 1000 м дымка {туман} ясно +13.5 +11.6 88 +13 +23 1025.7 1000.0
09 14.12 С 1 2000 м дым ясно +19.0 +11.8 63 +21 +29 комфорт 1023.5 1000.0
12 14.12 штиль 0 2000 м дым ясно +18.0 +10.6 62 +18 +18 1023.3 1000.0 +19.5
15 14.12 штиль 0 1000 м дым ясно +13.5 +9.6 77 +13 +13 1023.5 1000.0
18 14.12 штиль 0 1000 м дымка ясно +11.0 +7.9 81 +10 +10 1024.4 1000.0
21 14.12 штиль 0 1000 м дымка ясно +9.0 +6.9 87 +8 +8 1023.8 1000.0
00 15.12 штиль 0 500 м туман ясно +7.5 +6.4 93 +7 +7 1023.5 1010.0
03 15.12 штиль 0 <100 м туман ясно +6.0 +4.8 92 +5 +6 1024.0 1010.4 +5.5
06 15.12 штиль 0 1000 м дымка {туман} ясно +15.0 +13.2 89 +15 +24 1024.7 1000.0
09 15.12 З 1 2000 м дым ясно +20.5 +11.6 57 +24 +31 комфорт 1022.2 1000.0
12 15.12 штиль 0 2000 м дым ясно +19.0 +9.0 52 +20 +20 1021.6 1008.6 +21.7
15 15.12 штиль 0 1000 м дым ясно +14.0 +9.1 72 +14 +14 1022.7 1000.0
18 15.12 штиль 0 1000 м дымка ясно +11.5 +7.9 79 +11 +11 1023.7 1000.0
21 15.12 штиль 0 500 м туман на расстоянии ясно +9.5 +8.5 93 +9 +9 1023.2 1000.0
00 16.12 штиль 0 500 м туман ясно +7.5 +6.4 93 +7 +7 1022.9 1009.4
03 16.12 штиль 0 <100 м туман ясно +5.5 +5.5 100 +4 +5 1024.5 1010.9 +5.1
06 16.12 штиль 0 1000 м дымка {туман} ясно +15.0 +12.3 84 +15 +24 1025.4 1000.0
09 16.12 СЗ 1 2000 м мгла ясно +20.0 +8.6 48 +22 +29 комфорт 1022.4 1000.0
12 16.12 С 1 2000 м дым ясно +19.0 +8.5 51 +21 +21 комфорт 1020.7 1007.7 +21.3
15 16.12 штиль 0 2000 м дым ясно +14.0 +8.0 67 +14 +14 1021.6 1000.0
18 16.12 штиль 0 1000 м дымка ясно +10.5 +7.4 81 +10 +10 1022.5 1000.0
21 16.12 штиль 0 1000 м дымка ясно +8.5 +6.3 86 +8 +8 1021.9 1000.0
00 17.12 штиль 0 500 м туман ясно +7.0 +5.9 93 +6 +6 1021.6 1008.0
03 17.12 штиль 0 500 м туман ясно +6.5 +5.4 93 +5 +6 1022.6 1009.0 +5.3
06 17.12 штиль 0 1000 м дым {туман} ясно +16.5 +9.9 65 +16 +26 1023.0 1000.0
09 17.12 штиль 0 2000 м мгла ясно +21.0 +7.5 42 +22 +30 комфорт 1020.7 1000.0
12 17.12 штиль 0 2000 м мгла ясно +20.0 +7.4 44 +21 +21 комфорт 1019.2 1000.0 +22.1
15 17.12 штиль 0 1000 м дым ясно +13.5 +8.5 72 +13 +13 1020.1 1000.0
18 17.12 штиль 0 1000 м дымка ясно +9.5 +7.4 87 +9 +9 1021.8 1000.0
21 17.12 штиль 0 500 м дымка ясно +7.5 +5.3 86 +7 +7 1020.4 1000.0
00 18.12 штиль 0 500 м туман на расстоянии ясно +6.5 +5.4 93 +5 +5 1020.6 1007.1
03 18.12 штиль 0 500 м туман на расстоянии ясно +6.0 +4.8 92 +5 +6 1021.4 1007.8 +4.9
06 18.12 СЗ 1 2000 м дым ясно +17.0 +8.2 56 +19 +27 1021.2 1000.0
09 18.12 ЮЗ 2 2000 м мгла ясно +22.0 +6.4 36 +23 +29 комфорт 1018.5 1000.0
12 18.12 штиль 0 2000 м мгла ясно +21.0 +8.8 46 +22 +22 комфорт 1016.9 1004.1 +23.7
15 18.12 штиль 0 1000 м дым ясно +13.5 +7.4 67 +13 +13 1018.1 1000.0
18 18.12 штиль 0 1000 м дымка ясно +10.5 +7.4 81 +10 +10 1018.8 1000.0
21 18.12 штиль 0 500 м дымка ясно +8.5 +6.3 86 +8 +8 1018.1 1000.0
00 19.12 штиль 0 500 м туман на расстоянии ясно +6.5 +5.4 93 +5 +5 1018.2 1004.7

 

Местоположение метеостанции Bahawalpur (Пакистан): широта 29.40 долгота 71.78 высота над уровнем моря 113 м.

В архиве по умолчанию представлена погода в Bahawalpur за последнюю неделю. Архивные данные за месяц целиком и за предыдущие месяцы, начиная с января 2011 года, Вы можете получить, выбрав интересующий диапазон дат из раскрывающегося списка и нажав кнопку "Ввод!".


*Определитесь, кто Вы:
робот инопланетянин человек

Внимание! Время в таблицах - всемирное. Для получения местного времени необходимо прибавить поправку, которая в Bahawalpur равна 5 ч.

Смотрите также архив погоды в соседних городах и на ближайших метеорологических станциях:

Погода в Multan (Пакистан) (95 км)
Погода в Khanpur (Пакистан) (136 км)
Погода в Bahawalnagar (Пакистан) (155 км)
Погода в Raifiqui Airbase (Пакистан) (159 км)
Погода в Barkhan (Пакистан) (206 км)
Погода в Sri Ganganagar (Rajasthan, Индия) (212 км)
Погода в Bikaner (Rajasthan, Индия) (215 км)
Погода в Faisal Abad (Пакистан) (259 км)
Погода в Dera Ismail Khan (Пакистан) (281 км)
Погода в Jaisalmer (Rajasthan, Индия) (291 км)

Пояснения к столбцам:

Ветер - указаны скорость ветра в м/с - средняя за 10 мин, порывы в срок и между сроками (в фигурных скобках) и направление, откуда дует ветер: С - северный, СВ - северо-восточный, В - восточный, ЮВ - юго-восточный, Ю - южный, ЮЗ - юго-западный, З - западный, СЗ - северо-западный.
Видимость - горизонтальная дальность видимости в метрах или километрах. При видимости от 1 до 10 км при отсутствии осадков обычно наблюдается дымка, при ухудшении видимости до 1 км и менее - туман. В сухую погоду видимость может ухудшаться дымом, пылью или мглою.
Явления - указаны атмосферные явления, наблюдавшиеся в срок или в последний час перед сроком; фигурными скобками обозначены явления, наблюдавшиеся между сроками (за 1-3 часа до срока); квадратными скобками обозначены град или гололедные отложения с указанием их диаметра в мм.
Облачность - указаны через наклонную черту общая и нижняя облачность в баллах и высота нижней границы облаков в метрах; квадратными скобками обозначены формы облаков: Ci - перистые, Cs - перисто-слоистые, Cc - перисто-кучевые, Ac - высококучевые, As - высокослоистые, Sc - слоисто-кучевые, Ns - слоисто-дождевые, Cu - кучевые, Cb - кучево-дождевые. Подробнее классификацию облаков см. в Атласе облаков (PDF).
T - Температура воздуха - температура, измеренная на высоте 2 м над землей.
Td - Температура точки росы - температура, при понижении до которой содержащийся в воздухе водяной пар достигнет насыщения.
f - Относительная влажность воздуха - влажноcть воздуха, измеренная на высоте 2 м над землей.
Te - Эффективная температура - температура, которую ощущает одетый по сезону человек в тени. Характеристика душности погоды. При расчете учитывается влияние влажности воздуха и скорости ветра на теплоощущения человека.
Tes - Эффективная температура на солнце - температура, которую ощущает человек, с поправкой на солнечный нагрев. Характеристика знойности погоды. Зависит от высоты солнца над горизонтом, облачности и скорости ветра. Ночью, в пасмурную погоду, а также при ветре 12 м/с и более поправка равна нулю.
P - Атмосферное давление - приведенное к уровню моря атмосферное давление.
Po - Атмосферное давление - измеренное на уровне метеостанции атмосферное давление.
Tmin - Минимальная температура - минимум температуры воздуха на высоте 2 м над землей.
Tmax - Максимальная температура - максимум температуры воздуха на высоте 2 м над землей.
R - Количество осадков - Количество выпавших осадков за период времени, мм. При наведении курсора мыши на число - период времени, за который выпало указанное количество осадков.
R24 - Количество осадков - Количество выпавших осадков за 24 часа, мм.
S - Снежный покров - Высота снежного покрова, см. При наведении курсора мыши на число - состояние снежного покрова и степень покрытия местности в баллах.